Location: Ostrava
(49.8330°N, 18.2830°E)
Time: 04:52:34
(UTC+02:00)

ISS - Pass Details

Date: 23 May 2021
Orbit: 417 x 422 km, 51.6° (Epoch: 13 June)

Event Time Altitude Azimuth Distance (km) Brightness Sun altitude
Rises 22:10:33 0° 282° (WNW) 2,366 0.9 -11.7°
Reaches altitude 10° 22:12:39 10° 285° (WNW) 1,502 -0.2 -11.9°
Maximum altitude 22:16:01 68° 8° (N) 457 -3.5 -12.2°
Drops below altitude 10° 22:19:23 10° 93° (E) 1,503 -1.3 -12.5°
Enters shadow 22:19:24 10° 93° (E) 1,509 -1.3 -12.5°
